User: anonymous   Login
Location: Munkebjergskolens Observatorium
(55.3864°N, 10.3987°E)
Time: 09:26:45
(UTC+02:00)
Language:

CAS-6 - Orbit

View from above orbital plane
View from above orbital plane
View from above satellite
View from above satellite

Ground track
Ground track

The orbit data is extracted from the following two-line orbital elements,

1 44881U 19093C   24113.87289591  .00003232  00000-0  39828-3 0  9990
2 44881  97.8295 191.7264 0015444 139.8950 220.3407 14.83521652234846
Epoch (UTC): 22 April 2024 20:56:58
Eccentricity: 0.0015444
inclination: 97.8295°
perigee height: 607 km
apogee height: 629 km
right ascension of ascending node: 191.7264°
argument of perigee: 139.8950°
revolutions per day: 14.83521652
mean anomaly at epoch: 220.3407°
orbit number at epoch: 23484

The dashed part of the orbit path shows where the satellite is in the earth's shadow,  

DLR